Dewpoint
45 46 47 45 48 50 50 51 50 47 46 47 49 52 54 56 55 54 54 54 56 55 56 57 56 57 57 58 58 59 59 59 59 60 60 58 56 55
40 40 41 43 46 48 49 50 50 48 46 47 48 50 53 54 55 54 53 52 54 56 56 55 55 55 56 56 57 57 58 58 59 60 60 57 55 53
36 38 40 43 45 45 45 45 45 47 45 45 46 48 50 51 53 54 54 54 53 54 56 56 55 55 55 55 56 57 57 57 58 59 59 57 55 52
37 37 39 43 42 42 40 41 44 45 44 43 44 45 47 49 51 53 53 54 53 53 54 54 54 55 55 56 55 55 56 56 56 57 57 56 54 52
32 35 42 36 38 35 37 42 40 35 39 41 43 45 46 48 50 51 51 53 51 51 53 53 54 54 55 55 55 55 55 55 55 54 54 53 52 49
34 40 31 31 33 35 37 34 31 35 38 38 39 41 43 44 47 48 49 47 47 49 49 50 51 52 54 54 54 53 53 53 53 52 52 50 48 47
21 24 24 29 32 35 36 34 32 34 36 34 36 38 39 40 42 44 45 47 49 47 47 46 47 48 50 52 52 52 52 52 51 51 49 47 46 45
15 17 24 27 26 36 36 36 35 34 33 34 35 36 37 39 41 42 42 42 42 44 44 46 45 45 48 50 52 51 50 49 49 48 46 45 43 42
21 23 23 24 30 32 34 35 35 35 35 34 36 37 38 39 40 39 39 42 43 45 43 42 40 43 41 44 50 49 48 47 46 46 45 43 42 41
22 23 24 26 29 30 29 29 30 31 32 35 38 40 40 41 42 42 42 42 43 44 42 40 37 39 36 39 48 46 45 44 44 43 42 42 41 41
24 24 27 26 30 31 28 28 28 29 33 39 39 40 39 39 42 42 41 40 39 41 38 37 32 31 33 35 42 44 43 43 42 41 41 41 39 38
27 29 30 28 30 31 27 28 32 34 36 35 34 35 35 37 39 38 37 34 35 36 34 34 30 30 28 29 32 38 38 40 40 40 41 39 38 34
32 26 26 30 32 29 31 31 33 32 34 33 32 33 33 34 35 36 35 33 32 33 36 35 30 29 28 25 27 29 31 33 36 38 37 36 35 34
25 25 27 29 27 28 27 28 29 31 31 31 31 31 32 32 34 33 31 32 32 31 34 33 29 27 25 24 23 25 25 26 25 22 23 31 35 36
27 30 27 26 27 25 26 28 29 28 31 30 30 30 32 33 32 29 30 30 28 27 28 30 29 28 27 24 22 22 23 21 19 19 19 20 21 21
34 23 22 24 25 24 24 25 26 27 28 30 30 31 32 31 29 29 28 28 26 24 26 27 26 26 23 24 24 23 22 21 21 20 20 20 20 19
24 19 18 21 20 20 21 23 24 25 26 27 30 29 28 28 28 28 28 27 25 23 23 25 26 25 24 23 21 21 19 19 20 20 20 19 19 19
20 19 19 20 20 20 21 21 23 23 24 26 29 29 28 27 27 27 27 26 24 23 23 24 23 21 20 21 23 19 19 19 20 20 20 17 17 18
20 20 20 19 20 20 20 22 22 22 25 26 29 29 27 27 27 25 26 26 24 22 21 20 17 15 13 10 14 22 19 19 19 19 20 19 18 18
22 21 20 19 20 19 21 22 21 22 24 25 28 27 26 26 25 25 26 24 22 21 18 16 13 4 5 8 11 14 22 20 20 17 15 19 20 22
22 20 20 20 20 20 22 22 22 22 24 25 27 26 26 26 25 26 26 25 22 20 17 15 14 17 -4 4 11 13 16 22 21 16 18 18 20 22
19 19 20 20 20 21 22 22 21 22 23 25 27 26 26 26 25 25 24 22 20 19 15 9 7 5 7 6 5 7 13 19 21 25 23 23 22 19
19 20 21 20 21 22 21 21 21 22 23 26 26 26 26 24 24 23 21 20 18 15 13 11 6 2 4 7 8 7 9 12 16 20 25 28 28 28
Lifted_Index
13 12 11 10 8 6 5 3 2 3 3 4 3 2 1 0 0 -0 -0 -1 -1 -0 -0 0 0 0 -0 -1 -2 -2 -2 -2 -2 -2 -1 -0 0 1
13 12 11 9 8 6 5 4 3 3 3 4 3 2 2 1 0 0 -0 -0 -1 -0 -0 -0 0 0 0 -0 -1 -2 -2 -2 -2 -1 -1 -0 0 1
12 11 10 8 7 6 6 5 4 4 4 4 4 3 2 2 1 0 0 0 -0 -0 -0 -0 -0 -0 0 0 -0 -1 -1 -1 -1 -1 -1 0 1 1
11 10 8 7 7 7 7 6 6 5 5 5 4 4 3 2 1 1 0 0 0 0 0 -0 -0 -0 0 0 0 -0 -1 -1 -0 -0 0 1 2 2
10 8 7 7 7 7 7 6 7 7 7 6 5 5 4 3 2 1 1 0 0 1 1 1 1 1 1 1 1 1 -0 -0 0 0 1 2 3 3
9 8 8 8 8 8 7 7 8 8 8 7 6 6 5 4 3 2 1 1 1 1 2 2 2 2 2 2 2 1 1 1 1 1 1 2 3 4
10 10 10 10 9 9 8 9 9 9 9 9 8 7 6 5 4 3 3 2 2 2 2 3 3 2 2 3 3 2 2 1 1 1 2 3 4 5
13 12 12 11 11 10 10 10 10 10 10 10 9 8 7 6 5 5 4 4 3 3 3 3 3 3 3 3 3 3 3 2 2 3 3 5 6 7
14 14 14 13 12 12 11 11 11 11 11 10 9 9 8 7 6 6 5 5 4 4 3 3 3 3 3 3 3 4 4 4 4 5 6 7 8 9
14 14 14 13 13 12 13 13 13 12 11 10 9 9 8 8 7 6 6 5 5 4 4 3 3 3 3 3 4 5 6 6 7 8 9 10 11 11
14 13 13 13 13 13 13 14 13 13 11 10 9 8 8 7 7 6 5 5 4 4 3 3 3 2 2 4 6 8 8 9 9 10 11 12 13 14
13 12 12 12 12 12 13 13 13 12 11 10 9 8 7 7 6 5 5 4 4 4 3 3 3 2 3 5 8 10 11 11 11 12 13 14 15 15
11 11 11 10 10 11 11 12 12 12 11 10 8 7 7 6 6 5 5 5 5 5 5 5 4 4 4 5 8 11 12 13 13 14 15 15 16 16
9 9 9 10 10 11 11 12 12 12 11 9 8 7 7 7 7 7 7 7 8 8 8 8 7 7 6 6 7 10 12 13 14 15 16 16 16 16
8 9 9 10 11 12 12 12 12 12 10 9 8 8 9 9 8 8 9 10 11 11 11 11 10 10 9 8 8 10 12 13 15 16 17 17 17 17
9 10 11 11 12 13 13 13 12 11 10 10 9 10 10 10 10 10 11 12 12 12 13 13 13 13 12 11 11 11 13 14 16 18 18 18 18 18
11 12 12 12 13 13 13 13 12 11 10 10 11 11 11 11 11 12 13 13 13 13 13 14 14 14 14 14 14 14 15 16 17 18 18 17 18 18
13 13 13 13 13 13 13 13 12 11 11 11 12 12 13 13 13 13 14 14 13 13 13 14 15 15 15 16 17 17 17 17 17 17 16 16 15 16
14 14 14 14 14 14 14 13 12 12 12 12 13 14 14 14 14 14 14 14 14 14 14 15 16 16 16 16 17 17 17 16 16 15 15 14 14 14
14 15 15 15 15 14 14 14 13 12 13 14 15 16 16 16 16 15 15 15 15 15 16 17 17 17 16 15 15 16 16 15 14 14 13 13 13 13
15 16 16 16 15 15 15 14 13 13 14 15 16 17 17 17 16 16 15 15 16 17 17 17 17 17 16 15 14 14 14 14 14 13 12 12 11 10
16 16 17 17 16 16 15 14 14 14 15 17 17 17 17 17 16 16 16 16 17 17 17 16 16 16 15 13 12 12 12 12 12 12 12 11 10 9
17 17 17 17 17 16 15 15 14 15 16 17 17 17 16 16 16 17 17 17 17 17 16 15 14 14 13 12 11 11 11 11 11 11 10 10 10 9